SL-8 DEB, 21234

Orbit data source: Space-Track

SL-8 DEB, 21234 is space debris in LEO originally from a launch on Tue, 12 Feb 1991 UTC launched from the Plesetsk Missile And Space Complex (PKMTR). Debris objects in space refer to the collection of defunct objects orbiting the Earth. Examples of debris include non-operational satellites, rocket bodies, and fragments generated from explosions, collisions, or faulty payload assembly.

Loading next visibility...
Identifier
21234, 1991-009CT
Orbit
LEO
Country
Flag of CISCIS
Related business
Manufacturer
Unknown
Mission
Spacecraft
Bus & Motor
Unknown
Mass
Unknown
Launch date (UTC)
1991-02-12 (35 years ago)
Launch vehicle
Unknown
Launch site
Plesetsk Missile And Space Complex (PKMTR)
Object type
Payload
Rocket body
Debris
Shape & HBR
Unknown shape, 0.1 m
Radar Cross Section
Medium (>0.1 m² and <1 m²)

Expand to show TLE details & history
Last TLE update: 2 days ago

TLE from 2 days ago
0 SL-8 DEB
1 21234U 91009CT  26171.36923441  .00000073  00000-0  70799-3 0  9995
2 21234  74.0070 137.0064 0128219 236.4660 279.3271 12.32918847587032
Epoch: 2026-06-20T08:51Z
TLE epoch observation values (Epoch: 2026-06-20T08:51:41.853Z)
Latitude
24.62996°
Longitude
-92.01646°
Altitude
1,524.054 km
Speed
7.112 km/s
True Right ascension
20h 37m 58s
True Declination
24° 30' 45"
Sunlit
Object was in daylight at epoch
Visualization orbit readout
Latitude
Unknown
Longitude
Unknown
Altitude
Unknown
Speed
Unknown
Apparent Right ascension
Unknown
Apparent Declination
Unknown
Sunlit
N/A
Visualization observer readout
Local Sidereal Time
23:21:47
Azimuth
Unknown
Elevation
Unknown
Doppler factor
Unknown
Orbital elements
Apogee altitude
1,636.077 km
Perigee altitude
1,433.164 km
Semi-major axis
7,912.758 km
Eccentricity
0.01282
Inclination
74.007°
RAAN
137.0064°
Arg. of periapsis
236.466°
True anomaly
277.87362°
Mean anomaly
279.3271°
Eccentric anomaly
278.60072°
Mean motion
3.08355 °/min
Orbital period
116.75 mins
BSTAR
0.00070799
Loading maneuver chart data...
Computing Atmospheric mass density...
Loading historical data...
Loading historical data...
Loading historical data...
Loading historical data...
Loading historical data...
Loading historical data...
Loading historical data...

Documentation

Showing up to 5 results
|